EHI
0 0 0 0 0 0 0 0 0 0 0 0 0 0 2 9 23 42 61 70 63 45 27 13 4 1 0 0 0 0 0 0 0 0 0 0 0 0 0 0 0 0 0 0
0 0 0 0 0 0 0 0 0 0 0 0 0 0 1 6 18 37 57 69 68 54 34 17 5 1 0 0 0 0 0 0 0 0 0 0 0 0 0 0 0 0 0 0
0 0 0 0 0 0 0 0 0 0 0 0 0 0 0 4 16 34 51 64 67 57 38 20 6 0 0 0 0 0 0 0 0 0 0 0 0 0 0 0 0 0 0 0
0 0 0 0 0 0 0 0 0 0 0 0 0 0 0 7 21 35 44 51 52 43 29 15 5 0 0 0 0 0 0 0 0 0 0 0 0 0 0 0 0 0 0 0
0 0 0 0 0 0 0 0 0 0 0 0 0 0 1 10 25 35 36 34 29 20 13 6 2 0 0 0 0 0 0 0 0 0 0 0 0 0 0 0 0 0 0 0
0 0 0 0 0 0 0 0 0 0 0 0 0 0 1 9 24 34 30 20 11 5 2 1 0 0 0 0 0 0 0 0 0 0 0 0 0 0 0 0 0 0 0 0
0 0 0 0 0 0 0 0 0 0 0 0 0 0 0 6 20 28 22 10 3 0 0 0 0 0 0 0 0 0 0 0 0 0 0 0 0 0 0 0 0 0 0 0
0 0 0 0 0 0 0 0 0 0 0 0 0 0 0 5 14 17 11 4 0 0 0 0 0 0 0 0 0 0 0 0 0 0 0 0 0 0 0 0 0 0 0 0
0 0 0 0 0 0 0 0 0 0 0 0 0 0 0 3 7 7 3 1 0 0 0 0 0 0 0 0 0 0 0 0 0 0 0 0 0 0 0 0 0 0 0 0
0 0 0 0 0 0 0 0 0 0 0 0 0 0 0 2 4 4 2 0 0 0 0 0 0 0 0 0 0 0 0 0 0 0 0 0 0 0 0 0 0 0 0 0
0 0 0 0 0 0 0 0 0 0 0 0 0 0 0 2 3 3 1 0 0 0 0 0 0 0 0 0 0 0 0 0 0 0 0 0 0 0 0 0 0 0 0 0
0 0 0 0 0 0 0 0 0 0 0 0 0 0 0 1 1 1 0 0 0 0 0 0 0 0 0 0 0 0 0 0 0 0 0 0 0 0 0 0 0 0 0 0
0 0 0 0 0 0 0 0 0 0 0 0 0 0 0 0 0 0 0 0 0 0 0 0 0 0 0 0 0 0 0 0 0 0 0 0 0 0 0 0 0 0 0 0
0 0 0 0 0 0 0 0 0 0 0 0 0 0 0 0 0 0 0 0 0 0 0 0 0 0 0 0 0 0 0 0 0 0 0 0 0 0 0 0 0 0 0 0
0 0 0 0 0 0 0 0 0 0 0 0 0 0 0 0 0 0 0 0 0 0 0 0 0 0 0 0 0 0 0 0 0 0 0 0 0 0 0 0 0 0 0 0
0 0 0 0 0 0 0 0 0 0 0 0 0 0 0 0 0 0 0 0 0 0 0 0 0 0 0 0 0 0 0 0 0 0 0 0 0 0 0 0 0 0 0 0
0 0 0 0 0 0 0 0 0 0 0 0 0 0 0 0 0 0 0 0 0 0 0 0 0 0 0 0 0 0 0 0 0 0 0 0 0 0 0 0 0 0 0 0
0 0 0 0 0 0 0 0 0 0 0 0 0 0 0 0 0 0 0 0 0 0 0 0 0 0 0 0 0 0 0 0 0 0 0 0 0 0 0 0 0 0 0 0
0 0 0 0 0 0 0 0 0 0 0 0 0 0 0 0 0 0 0 0 0 0 0 0 0 0 0 0 0 0 0 0 0 0 0 0 0 0 0 0 0 0 0 0
0 0 0 0 0 0 0 0 0 0 0 0 0 0 0 0 0 0 0 0 0 0 0 0 0 0 0 0 0 0 0 0 0 0 0 0 0 0 0 0 0 0 0 0
0 0 0 0 0 0 0 0 0 0 0 0 0 0 0 0 0 0 0 0 0 0 0 0 0 0 0 0 0 0 0 0 0 0 0 0 0 0 0 0 0 0 0 0
0 0 0 0 0 0 0 0 0 0 0 0 0 0 0 0 0 0 0 0 0 0 0 0 0 0 0 0 0 0 0 0 0 0 0 0 0 0 0 0 0 0 0 0
0 0 0 0 0 0 0 0 0 0 0 0 0 0 0 0 0 0 0 0 0 0 0 0 0 0 0 0 0 0 0 0 0 0 0 0 0 0 0 0 0 0 0 0
0 0 0 0 0 0 0 0 0 0 0 0 0 0 0 0 0 0 0 0 0 0 0 0 0 0 0 0 0 0 0 0 0 0 0 0 0 0 0 0 0 0 0 0
0 0 0 0 0 0 0 0 0 0 0 0 0 0 0 0 0 0 0 0 0 0 0 0 0 0 0 0 0 0 0 0 0 0 0 0 0 0 0 0 0 0 0 0
0 0 0 0 0 0 0 0 0 0 0 0 0 0 0 0 0 0 0 0 0 0 0 0 0 0 0 0 0 0 0 0 0 0 0 0 0 0 0 0 0 0 0 0
Wind_Speed
3 3 6 8 8 8 6 7 11 15 11 6 6 5 6 12 20 20 18 18 18 15 11 8 7 7 7 7 7 7 7 6 5 4 4 4 4 4 5 6 7 8 7 6
1 7 12 9 8 7 8 10 13 14 9 1 2 3 4 9 16 20 22 20 20 17 14 11 8 7 7 7 8 9 9 8 7 5 4 4 3 4 3 4 6 7 7 6
9 10 8 9 10 10 11 11 13 11 6 2 5 4 4 6 12 16 16 18 18 19 17 14 12 10 10 10 10 10 10 11 10 8 5 5 4 3 4 5 5 6 7 7
8 11 10 9 10 11 13 15 12 9 4 4 4 3 2 5 10 13 15 15 16 17 16 15 14 13 12 11 11 12 11 11 10 9 8 8 6 4 4 3 4 5 7 7
8 8 9 11 14 12 14 15 10 7 4 2 1 5 5 6 9 11 12 14 15 15 16 16 14 13 12 12 11 10 11 10 9 9 8 8 7 4 3 4 5 6 5 5
12 10 8 10 13 11 10 7 1 3 5 3 6 5 7 9 15 17 15 16 16 16 16 15 13 12 11 10 10 9 9 9 8 9 9 8 8 6 6 6 5 4 4 4
10 12 12 9 10 12 4 4 1 4 3 7 5 4 8 9 16 21 21 19 17 16 16 16 14 12 10 9 8 8 9 8 8 8 8 7 7 6 5 4 4 4 3 3
9 11 11 10 11 11 7 10 10 8 7 6 3 4 5 6 16 17 18 19 18 16 15 16 14 13 11 9 8 8 8 7 7 7 6 6 5 4 3 3 2 2 2 3
11 13 11 9 8 8 7 7 10 9 6 3 3 1 4 7 16 18 19 19 18 17 17 16 14 12 11 10 8 8 8 7 6 6 5 5 4 3 3 3 2 2 3 3
6 8 11 9 5 5 9 8 6 7 7 5 4 6 9 14 17 18 18 17 16 15 15 14 12 11 10 9 8 7 7 7 5 5 4 3 2 2 2 2 3 4 4 4
1 4 7 5 4 7 3 3 4 5 6 8 6 9 11 22 22 20 17 16 16 15 15 13 12 11 10 8 7 7 6 6 4 3 2 2 2 2 3 3 4 4 4 5
3 3 3 7 7 5 7 8 7 6 6 6 5 10 5 17 16 16 17 16 15 15 14 14 13 11 9 8 7 6 5 5 3 2 1 1 2 3 3 4 5 4 4 4
3 4 4 9 9 7 3 2 2 4 5 4 4 8 4 10 12 13 15 16 16 15 15 13 12 10 9 7 6 6 5 4 2 1 1 2 3 4 4 4 4 4 4 4
3 3 6 7 7 4 6 5 3 1 2 3 4 3 3 9 12 11 11 12 13 14 14 12 10 8 7 7 6 5 4 2 1 1 2 3 4 3 4 4 4 4 4 3
5 1 4 7 8 7 8 8 4 2 4 5 5 7 9 11 12 12 13 15 15 13 13 12 9 7 6 6 5 4 2 1 1 2 3 4 4 3 3 4 4 4 4 4
5 2 4 5 5 6 9 9 5 5 5 6 8 4 8 15 13 14 15 17 16 13 12 11 9 8 7 6 4 3 1 2 2 3 4 3 3 3 4 4 4 4 5 5
2 2 4 5 6 5 7 6 5 5 6 8 9 10 17 20 20 18 18 18 17 15 12 10 8 7 6 4 3 1 2 3 2 2 2 2 3 4 5 5 5 5 5 4
5 2 2 3 2 8 9 3 3 5 5 7 9 18 22 18 13 10 13 16 16 15 12 9 7 6 4 3 1 1 2 3 2 2 3 4 4 5 6 5 6 5 4 4
6 6 4 3 4 8 6 3 3 0 4 2 13 19 19 22 19 11 10 14 14 12 9 7 6 6 4 2 1 2 3 3 3 4 5 6 6 6 7 7 7 5 3 2
4 3 4 3 4 7 5 3 5 3 2 1 15 23 22 17 12 7 10 14 13 10 7 6 6 5 3 1 0 2 3 4 5 6 6 7 6 7 7 8 6 3 1 3
6 4 1 4 6 9 5 3 2 4 5 5 10 11 8 7 10 14 13 12 10 9 8 7 6 4 2 2 0 2 4 5 6 6 6 6 7 7 7 4 3 3 5 6
2 3 3 2 5 10 3 1 5 7 8 15 15 13 18 21 20 16 14 11 9 8 7 6 4 2 2 2 1 2 5 6 6 6 6 7 7 5 5 6 7 7 6 6
3 4 3 5 7 6 5 4 4 12 16 16 16 18 21 20 18 15 11 9 8 7 5 4 3 2 3 3 2 3 5 5 5 6 6 6 7 8 8 8 7 6 5 5
4 3 4 6 7 6 1 7 9 12 16 17 20 19 19 19 16 14 11 8 6 5 4 2 2 2 3 3 2 2 3 3 5 5 6 6 7 7 7 6 5 5 4 4
5 3 4 4 2 5 8 10 15 17 19 19 17 17 17 17 15 12 9 7 5 4 2 2 2 1 2 1 1 1 2 5 6 6 6 6 6 5 5 5 3 3 2 1
3 3 2 1 1 4 7 10 17 18 17 18 18 14 13 13 12 10 8 6 5 4 2 1 1 1 1 2 2 3 4 5 6 6 7 5 4 4 3 3 3 3 2 5
Wind_Direction
215 148 223 230 219 213 239 268 278 280 286 310 276 216 160 128 119 121 121 121 119 118 121 116 106 94 82 69 67 64 60 52 57 56 56 58 54 47 47 48 43 41 35 33
4 237 228 222 232 238 248 261 271 283 284 223 60 63 113 131 131 133 132 130 129 127 124 120 113 100 88 82 77 73 66 60 58 64 67 77 84 66 61 41 36 34 32 25
210 238 232 223 237 243 251 240 248 255 287 29 98 27 43 74 107 116 122 127 129 131 130 126 114 100 92 84 82 81 72 67 63 64 67 63 51 41 29 24 23 20 25 27
232 243 245 243 240 228 253 249 237 244 253 265 143 172 218 124 112 121 127 130 129 128 125 121 116 108 100 93 87 81 75 70 64 63 66 67 64 51 26 18 22 14 20 29
233 234 232 240 244 235 234 248 230 221 217 273 322 155 225 149 142 144 138 133 130 129 127 122 117 112 105 98 91 84 79 72 65 63 63 63 57 48 33 25 21 13 8 15
234 245 233 237 255 248 240 239 258 59 77 272 249 188 222 194 175 156 147 140 137 133 128 123 118 113 105 97 91 86 81 72 64 62 60 61 58 48 36 21 9 359 350 352
251 257 257 252 269 283 251 157 23 332 338 253 251 206 234 197 165 157 151 146 142 138 135 131 126 119 112 104 98 91 85 74 66 66 62 60 59 51 38 13 1 354 343 333
219 253 247 243 230 239 237 164 173 199 223 261 309 228 277 159 144 145 145 145 145 143 140 137 133 128 123 116 107 99 92 84 73 71 70 59 55 48 26 7 352 339 316 298
199 234 241 238 241 214 220 201 185 162 181 193 246 168 38 105 138 149 152 151 151 149 145 139 134 130 124 118 113 111 104 93 82 79 80 59 45 36 9 347 334 316 307 312
200 237 258 254 253 258 198 181 117 135 167 221 230 204 188 176 172 165 160 156 150 146 140 135 131 124 119 117 113 110 108 105 98 85 70 69 32 360 338 330 325 317 313 317
48 210 286 316 225 239 246 193 155 149 163 176 221 246 207 186 179 170 162 155 150 144 139 132 127 122 118 114 113 110 104 102 98 94 84 48 345 325 325 319 313 312 311 318
12 106 277 273 262 231 216 213 179 179 222 181 190 254 256 179 170 159 153 151 145 139 133 128 124 121 117 116 116 112 108 106 108 103 73 340 319 322 325 320 316 315 316 321
8 76 7 339 338 354 358 332 209 167 156 172 196 269 6 134 142 149 147 145 140 133 127 122 121 121 121 122 120 114 108 106 98 57 4 329 323 324 321 317 315 316 319 322
77 149 178 213 237 277 304 310 338 102 161 197 201 198 119 140 141 140 135 129 126 124 121 118 117 116 116 116 116 111 106 105 76 354 341 325 313 309 308 313 312 308 307 306
56 289 252 241 245 255 267 270 264 225 182 176 186 170 174 159 143 133 125 123 124 124 124 123 121 117 111 107 104 99 89 7 322 322 318 305 299 304 312 316 307 302 304 304
23 6 346 307 286 274 267 268 260 234 206 175 145 153 151 131 128 134 137 135 132 131 128 125 121 118 114 111 105 81 15 323 326 315 300 295 304 314 309 304 301 303 303 299
313 27 360 289 304 322 268 253 248 234 204 171 181 173 151 145 151 152 148 142 138 134 131 130 125 121 119 116 107 63 319 315 322 299 293 290 293 298 295 298 302 297 292 290
202 217 219 256 315 246 245 262 253 243 233 197 169 160 158 144 125 119 132 132 129 128 128 127 126 123 121 113 90 346 328 321 303 281 281 278 278 282 286 291 286 280 278 285
195 182 195 210 234 267 279 333 349 265 301 229 150 140 126 116 94 79 103 116 119 121 125 130 133 126 119 115 64 357 340 324 306 285 276 272 269 273 279 281 276 274 279 312
42 119 168 201 215 245 244 291 305 116 307 5 141 142 143 130 122 132 119 113 112 114 117 118 113 106 110 142 26 356 323 310 292 281 277 277 274 272 273 274 277 290 3 32
353 3 170 207 229 255 248 273 12 161 217 96 116 130 122 90 115 128 123 113 113 113 109 105 106 114 164 209 256 320 302 286 277 283 291 295 292 285 280 299 352 43 59 51
288 295 275 232 227 251 274 204 180 172 124 109 104 103 103 107 114 120 119 116 112 104 100 105 115 158 227 237 240 287 288 281 295 310 319 319 322 335 14 52 58 59 58 46
247 225 251 243 245 274 271 231 159 134 123 118 115 118 119 120 122 122 119 114 109 110 118 126 151 206 255 260 232 263 284 305 334 348 346 347 16 40 56 69 68 60 50 40
265 211 241 265 279 299 280 123 115 113 113 118 122 126 125 122 121 118 116 114 116 123 133 144 169 215 262 278 252 247 302 2 24 11 359 18 54 55 53 61 67 69 53 34
258 243 259 261 306 49 73 112 115 110 111 113 115 119 120 120 121 122 124 127 130 135 144 153 169 211 268 265 281 338 44 48 33 15 20 43 67 71 65 59 54 66 58 43
243 219 234 284 338 95 98 108 112 110 113 116 117 113 116 121 123 125 128 130 132 135 132 107 70 72 70 72 51 44 59 61 51 36 39 54 71 69 63 52 24 8 329 325